| time (UTC) | temp F | wind direction | speed knots | gust knots | rain 1hr in | rain 24hr in | rain mn in | humidity % | barometer mb |
| 20260504150922 | 61 | 300 | 3.5 | 0.0 | 0.00 | 0.00 | 0.00 | 91 | 1016.0 |
| 20260504140518 | 61 | 120 | 2.6 | 0.0 | 0.00 | 0.00 | 0.00 | 10 | 1016.0 |
| 20260504130111 | 57 | 0 | 0.9 | 0.0 | 0.00 | 0.00 | 0.00 | 10 | 1017.0 |
| 20260504100500 | 48 | 110 | 3.5 | 2.6 | 0.00 | 0.00 | 0.00 | 82 | 1017.0 |
| 20260504081253 | 49 | 112 | 3.5 | 2.6 | 0.00 | 0.00 | 0.00 | 82 | 1017.0 |
| 20260504044445 | 51 | 111 | 2.6 | 1.7 | 0.00 | 0.00 | 0.00 | 82 | 1018.0 |
| 20260504042844 | 50 | 108 | 3.5 | 2.6 | 0.00 | 0.00 | 0.00 | 82 | 1018.0 |
| 20260504041244 | 51 | 108 | 3.5 | 2.6 | 0.00 | 0.00 | 0.00 | 82 | 1018.0 |
| 20260504035643 | 50 | 110 | 3.5 | 2.6 | 0.02 | 0.00 | 0.00 | 82 | 1018.0 |
| 20260504034042 | 50 | 107 | 4.3 | 2.6 | 0.00 | 0.00 | 0.00 | 82 | 1018.0 |
| 20260504032428 | 50 | 107 | 4.3 | 2.6 | 0.00 | 0.00 | 0.00 | 82 | 1018.0 |
| 20260504030823 | 50 | 107 | 4.3 | 2.6 | 0.00 | 0.00 | 0.00 | 82 | 1018.0 |
| 20260504025222 | 50 | 107 | 4.3 | 2.6 | 0.00 | 0.00 | 0.00 | 82 | 1018.0 |
| 20260504023622 | 50 | 107 | 4.3 | 2.6 | 0.00 | 0.00 | 0.00 | 82 | 1018.0 |
| 20260504022021 | 51 | 107 | 4.3 | 2.6 | 0.00 | 0.00 | 0.00 | 82 | 1017.0 |
| 20260504020420 | 52 | 107 | 4.3 | 2.6 | 0.00 | 0.00 | 0.00 | 82 | 1017.0 |
| 20260504014819 | 52 | 107 | 4.3 | 2.6 | 0.00 | 0.00 | 0.00 | 82 | 1017.0 |
| 20260504013216 | 52 | 107 | 4.3 | 2.6 | 0.00 | 0.00 | 0.00 | 81 | 1017.0 |
| 20260504011614 | 51 | 89 | 0.9 | 0.9 | 0.00 | 0.00 | 0.00 | 79 | 1016.0 |
| 20260504010013 | 51 | 89 | 0.9 | 0.9 | 0.00 | 0.00 | 0.00 | 79 | 1016.0 |
| 20260504004413 | 51 | 89 | 0.9 | 0.9 | 0.00 | 0.00 | 0.00 | 79 | 1016.0 |
| 20260504002812 | 52 | 89 | 0.9 | 0.9 | 0.00 | 0.00 | 0.00 | 77 | 1015.0 |
| 20260504001211 | 53 | 89 | 0.9 | 0.9 | 0.00 | 0.00 | 0.00 | 77 | 1015.0 |
| 20260503235611 | 54 | 89 | 0.9 | 0.9 | 0.00 | 0.00 | 0.00 | 77 | 1015.0 |
| 20260503234010 | 55 | 89 | 0.9 | 0.9 | 0.00 | 0.00 | 0.00 | 77 | 1014.0 |
| 20260503230807 | 56 | 89 | 0.9 | 0.9 | 0.00 | 0.00 | 0.00 | 77 | 1013.0 |
| 20260503225203 | 56 | 89 | 0.9 | 0.9 | 0.00 | 0.00 | 0.00 | 77 | 1013.0 |
| 20260503223600 | 57 | 89 | 0.9 | 0.9 | 0.00 | 0.00 | 0.00 | 77 | 1013.0 |
| 20260503221959 | 58 | 41 | 0.0 | 2.6 | 0.00 | 0.00 | 0.00 | 77 | 1012.0 |
| 20260503220356 | 56 | 300 | 7.0 | 0.0 | 0.00 | 0.00 | 0.00 | 77 | 1012.0 |
| 20260503214756 | 57 | 300 | 7.0 | 0.0 | 0.00 | 0.00 | 0.00 | 77 | 1012.0 |
| 20260503213155 | 58 | 300 | 7.0 | 0.0 | 0.00 | 0.00 | 0.00 | 77 | 1012.0 |
| 20260503211555 | 59 | 300 | 7.0 | 0.0 | 0.00 | 0.00 | 0.00 | 77 | 1012.0 |
| 20260503205954 | 60 | 300 | 7.0 | 0.0 | 0.00 | 0.00 | 0.00 | 77 | 1012.0 |
| 20260503204354 | 61 | 300 | 7.0 | 0.0 | 0.00 | 0.00 | 0.00 | 77 | 1012.0 |
| 20260503202750 | 62 | 300 | 7.0 | 0.0 | 0.00 | 0.00 | 0.00 | 76 | 1012.0 |
| 20260503201146 | 62 | 300 | 7.0 | 0.0 | 0.00 | 0.00 | 0.00 | 74 | 1012.0 |
| 20260503195544 | 63 | 300 | 7.0 | 0.0 | 0.00 | 0.00 | 0.00 | 74 | 1012.0 |
| 20260503193943 | 64 | 300 | 7.0 | 0.0 | 0.00 | 0.00 | 0.00 | 74 | 1012.0 |
| 20260503192342 | 64 | 300 | 7.0 | 0.0 | 0.00 | 0.00 | 0.00 | 74 | 1012.0 |
| 20260503190742 | 64 | 300 | 7.0 | 0.0 | 0.00 | 0.00 | 0.00 | 74 | 1012.0 |
| 20260503185141 | 64 | 300 | 7.0 | 0.0 | 0.00 | 0.00 | 0.00 | 75 | 1012.0 |
| 20260503183541 | 65 | 300 | 7.0 | 0.0 | 0.00 | 0.00 | 0.00 | 75 | 1013.0 |
| 20260503181939 | 65 | 300 | 7.0 | 0.0 | 0.00 | 0.00 | 0.00 | 75 | 1014.0 |
| 20260503180338 | 65 | 300 | 7.0 | 0.0 | 0.00 | 0.00 | 0.00 | 76 | 1014.0 |
| 20260503174738 | 63 | 300 | 7.0 | 0.0 | 0.00 | 0.00 | 0.00 | 79 | 1014.0 |
| 20260503173132 | 64 | 300 | 7.0 | 0.0 | 0.00 | 0.00 | 0.00 | 79 | 1014.0 |
| 20260503171530 | 65 | 300 | 7.0 | 0.0 | 0.00 | 0.00 | 0.00 | 79 | 1015.0 |